Find Starlink 31010

NORAD ID: 58519 Int'l Des: 2023-191 Owner: SPXS Country: US Constellation: starlink operational
LEOCIRCULAR

現在のビュー

3D地球を読み込み中...

About Starlink 31010

Starlink 31010 (NORAD 58519) is a starlink constellation satellite (v2 mini) launched Dec 7, 2023 by SPXS of US. It operates in LEO, CIRCULAR orbit with a mass of 730.00 kg.

Starlink 31010について

説明を読み込み中...

次回通過

Passes for default location (London). Set your location on the main map for personalized predictions.

高度履歴

Loading altitude history...

軌道要素

1 58519U 23191M 26166.99305190 .00000144 00000-0 14750-4 0 9991
2 58519 42.9997 268.3774 0001092 262.9577 97.1150 15.27576635140507
Epoch: Jun 15, 2026 • Age: 14 hours

現在のステータス

高度 482.3 km
速度 7.63 km/s
衛星直下点 11.29°N, 162.04°E
打ち上げ日 Dec 7, 2023
運用期間 2.5 years
タイプ internet

技術仕様

分類 Payload
質量 730.00 kg
乾燥質量 700.00 kg
総質量 730.00 kg
長さ 0.30 m
直径 4.10 m
スパン 29.00 m
形状 Box + pan
製造者 SPXS
バスタイプ Starlink V2M
フェーズステータス In Orbit
所有者/国 SPXS/US

Most Searched